DW6471 Wilmer AL US current weather conditions

sailwx.info

Wind from 349

Air temperature 9.4° C
Dewpoint 9.1° C

Last reported at 2019-Dec-15 04:02 UTC.
Time now 2019-Dec-15 04:50 UTC

Location: N 30°45' W 088°24'.
View on Google Maps.

See reports from other nearby stations

  
Tides and Currents Weather Stations Pressure Air Temp Water Temp Dewpoint Dewpoint Depression Visibility Wind Speed Wind Dir Waves Ship Positions
date/time (UTC)wind fromknots sea level pressurealtimeterstation pressurevisibilityair tempwater tempwave heightnotes
2019-Dec-15 04:02 349 9.4
2019-Dec-15 03:32 349 9.4
2019-Dec-15 03:27 349 9.4
2019-Dec-15 03:22 349 9.4
2019-Dec-15 03:17 349 9.4
2019-Dec-15 03:12 349 9.4
2019-Dec-15 03:07 349 8.9
2019-Dec-15 03:02 349 8.9
2019-Dec-15 02:57 349 8.9
2019-Dec-15 02:52 349 8.9
2019-Dec-15 02:47 349 8.9
2019-Dec-15 02:42 349 8.3
2019-Dec-15 02:37 349 8.3
2019-Dec-15 02:32 349 8.3
2019-Dec-15 02:27 349 8.3
2019-Dec-15 02:22 349 8.3
2019-Dec-15 02:17 349 8.3
2019-Dec-15 02:12 349 8.9
2019-Dec-15 02:07 349 8.9
2019-Dec-15 02:02 349 8.9
2019-Dec-15 01:57 349 8.9
2019-Dec-15 01:52 349 8.9
2019-Dec-15 01:47 349 8.9
2019-Dec-15 01:42 349 9.4
2019-Dec-15 01:37 349 8.9
2019-Dec-15 01:32 349 8.9
2019-Dec-15 01:27 349 8.9
2019-Dec-15 01:22 349 8.9
2019-Dec-15 01:17 349 9.4
2019-Dec-15 01:12 349 9.4
2019-Dec-15 01:07 349 9.4
2019-Dec-15 01:02 349 9.4
2019-Dec-15 00:57 349 9.4
2019-Dec-15 00:52 349 9.4
2019-Dec-15 00:47 349 9.4
2019-Dec-15 00:42 349 9.4
2019-Dec-15 00:37 349 9.4
2019-Dec-15 00:32 349 9.4
2019-Dec-15 00:27 349 10.0
2019-Dec-15 00:22 349 10.0
2019-Dec-15 00:17 349 10.0
2019-Dec-15 00:12 349 10.0
2019-Dec-15 00:07 349 10.0
2019-Dec-15 00:02 349 10.6
2019-Dec-14 23:57 349 10.6
2019-Dec-14 23:52 349 10.6
2019-Dec-14 23:47 349 10.6
2019-Dec-14 23:42 349 10.6
2019-Dec-14 23:37 349 11.1
2019-Dec-14 23:32 349 11.1
2019-Dec-14 23:27 349 11.1
2019-Dec-14 23:22 349 11.1
2019-Dec-14 23:17 349 11.7
2019-Dec-14 23:12 349 11.7
2019-Dec-14 23:07 349 11.7
2019-Dec-14 23:02 349 12.2
2019-Dec-14 22:57 349 12.2
2019-Dec-14 22:52 349 12.8
2019-Dec-14 22:47 349 12.8
2019-Dec-14 22:42 349 13.3
2019-Dec-14 22:37 349 13.3
2019-Dec-14 22:32 349 13.3
2019-Dec-14 22:27 349 13.9
2019-Dec-14 22:22 349 13.9
2019-Dec-14 22:17 349 13.9
2019-Dec-14 22:12 349 13.9
2019-Dec-14 22:07 349 14.4
2019-Dec-14 22:02 349 14.4
2019-Dec-14 21:57 349 14.4
2019-Dec-14 21:52 349 14.4
2019-Dec-14 21:47 349 13.9
2019-Dec-14 21:42 349 13.9
2019-Dec-14 21:37 349 13.9
2019-Dec-14 21:32 349 13.9
2019-Dec-14 21:27 275 13.9
2019-Dec-14 21:22 315 13.9
2019-Dec-14 21:02 248 0 gusting 2 13.9
2019-Dec-14 20:57 337 13.9
2019-Dec-14 20:52 338 13.9
2019-Dec-14 20:47 318 13.9
2019-Dec-14 20:42 252 0 gusting 3 13.9
2019-Dec-14 20:37 305 0 gusting 3 13.9
2019-Dec-14 20:32 308 14.4
2019-Dec-14 20:27 001 14.4
2019-Dec-14 20:22 271 14.4
2019-Dec-14 20:17 347 0 gusting 3 13.9
2019-Dec-14 20:12 207 0 gusting 5 13.9
2019-Dec-14 20:07 260 0 gusting 5 14.4
2019-Dec-14 20:02 249 0 gusting 4 14.4
2019-Dec-14 19:57 347 1 gusting 4 14.4
2019-Dec-14 19:52 001 1 gusting 6 14.4
2019-Dec-14 19:47 269 0 gusting 6 15.0
2019-Dec-14 19:42 326 0 gusting 4 15.0
2019-Dec-14 19:37 197 1 gusting 4 15.0
2019-Dec-14 19:32 210 0 gusting 3 15.0
2019-Dec-14 19:27 262 0 gusting 3 15.0
2019-Dec-14 19:22 213 0 gusting 2 15.0
2019-Dec-14 19:17 020 0 gusting 2 15.0
2019-Dec-14 19:12 261 0 gusting 3 15.0
2019-Dec-14 19:07 194 0 gusting 4 15.0
2019-Dec-14 19:02 243 0 gusting 4 15.0
2019-Dec-14 18:57 293 0 gusting 2 14.4
2019-Dec-14 18:52 249 0 gusting 3 14.4
2019-Dec-14 18:47 263 0 gusting 3 14.4
2019-Dec-14 18:42 030 0 gusting 2 13.9
2019-Dec-14 18:37 240 0 gusting 2 13.9
2019-Dec-14 18:32 228 0 gusting 3 13.9
2019-Dec-14 18:27 307 0 gusting 3 13.9
2019-Dec-14 18:22 311 0 gusting 3 13.9
2019-Dec-14 18:17 227 0 gusting 2 13.9
2019-Dec-14 18:12 215 0 gusting 2 13.9
2019-Dec-14 18:07 248 0 gusting 2 13.3
2019-Dec-14 18:02 234 0 gusting 2 12.8
2019-Dec-14 17:57 306 12.8
2019-Dec-14 17:52 236 12.2
2019-Dec-14 17:47 248 0 gusting 2 12.2
2019-Dec-14 17:42 210 0 gusting 2 12.2
2019-Dec-14 17:37 203 0 gusting 3 12.2
2019-Dec-14 17:32 176 0 gusting 3 12.2
2019-Dec-14 17:27 210 11.7
2019-Dec-14 17:22 146 0 gusting 2 11.7
2019-Dec-14 17:17 220 0 gusting 2 11.7
2019-Dec-14 17:12 193 0 gusting 3 11.7
2019-Dec-14 17:07 203 0 gusting 3 11.7
2019-Dec-14 17:02 253 11.7
2019-Dec-14 16:57 195 11.1
2019-Dec-14 16:52 262 11.1
2019-Dec-14 16:47 338 11.1
2019-Dec-14 16:42 338 11.1
2019-Dec-14 16:37 322 11.1
2019-Dec-14 16:32 127 10.6
2019-Dec-14 16:27 113 10.6
2019-Dec-14 16:22 319 10.6
2019-Dec-14 16:17 342 10.6
2019-Dec-14 16:12 089 0 gusting 1 10.6
2019-Dec-14 16:07 250 0 gusting 2 10.6
2019-Dec-14 16:02 248 0 gusting 2 10.6
2019-Dec-14 15:57 236 0 gusting 3 10.6
2019-Dec-14 15:52 339 0 gusting 3 10.6
2019-Dec-14 15:47 307 0 gusting 1 10.6
2019-Dec-14 15:42 162 0 gusting 2 10.6
2019-Dec-14 15:37 234 10.0
2019-Dec-14 15:32 275 10.0
2019-Dec-14 15:27 240 0 gusting 2 10.0
2019-Dec-14 15:22 268 0 gusting 2 10.0
2019-Dec-14 15:17 270 0 gusting 2 10.0
2019-Dec-14 15:12 243 0 gusting 2 10.0
2019-Dec-14 15:07 328 0 gusting 3 10.0
2019-Dec-14 15:02 238 0 gusting 4 10.0
2019-Dec-14 14:57 247 10.0
2019-Dec-14 14:52 212 10.0
2019-Dec-14 14:47 272 10.0
2019-Dec-14 14:42 210 10.0
2019-Dec-14 14:37 198 10.0
2019-Dec-14 14:32 141 10.0
2019-Dec-14 14:27 233 10.0
2019-Dec-14 14:22 205 10.0
2019-Dec-14 14:16 205 9.4
2019-Dec-14 14:11 256 10.0
2019-Dec-14 14:06 240 10.0
2019-Dec-14 14:01 174 9.4
2019-Dec-14 13:56 174 9.4
2019-Dec-14 13:51 336 9.4
2019-Dec-14 13:46 336 9.4
2019-Dec-14 13:41 336 9.4
2019-Dec-14 13:36 263 9.4
2019-Dec-14 13:31 263 9.4
2019-Dec-14 13:26 264 9.4
2019-Dec-14 13:21 264 9.4
2019-Dec-14 13:16 264 9.4
2019-Dec-14 13:11 263 9.4
2019-Dec-14 13:06 263 9.4
2019-Dec-14 13:01 263 9.4
2019-Dec-14 12:56 263 9.4
2019-Dec-14 12:51 263 9.4
2019-Dec-14 12:46 251 9.4
2019-Dec-14 12:41 278 9.4
2019-Dec-14 12:36 278 9.4
2019-Dec-14 12:31 295 9.4
2019-Dec-14 12:26 296 9.4
2019-Dec-14 12:21 295 9.4
2019-Dec-14 12:16 295 9.4
2019-Dec-14 12:11 296 9.4
2019-Dec-14 12:06 295 9.4
2019-Dec-14 12:01 295 9.4
2019-Dec-14 11:56 295 9.4
2019-Dec-14 11:51 340 9.4
2019-Dec-14 11:46 340 9.4
2019-Dec-14 11:41 340 9.4
2019-Dec-14 11:36 340 9.4
2019-Dec-14 11:31 340 9.4
2019-Dec-14 11:26 340 9.4
2019-Dec-14 11:21 333 9.4
2019-Dec-14 11:16 321 9.4
2019-Dec-14 11:11 319 9.4
2019-Dec-14 11:06 319 9.4
2019-Dec-14 11:01 348 9.4
2019-Dec-14 10:56 348 9.4
2019-Dec-14 10:51 348 9.4
2019-Dec-14 10:46 348 9.4
2019-Dec-14 10:41 349 9.4
2019-Dec-14 10:36 012 9.4
2019-Dec-14 10:31 327 10.0
2019-Dec-14 10:26 337 10.0
2019-Dec-14 10:21 337 10.0
2019-Dec-14 10:16 337 10.0
2019-Dec-14 10:11 336 10.0
2019-Dec-14 10:06 337 10.0
2019-Dec-14 10:01 336 10.0
2019-Dec-14 09:56 337 10.0
2019-Dec-14 09:51 337 10.0
2019-Dec-14 09:46 259 10.0
2019-Dec-14 09:41 259 10.0
2019-Dec-14 09:36 259 10.0
2019-Dec-14 09:31 259 10.0
2019-Dec-14 09:26 259 10.0
2019-Dec-14 09:21 220 10.0
2019-Dec-14 09:06 351 9.4
2019-Dec-14 09:01 351 9.4
2019-Dec-14 08:56 351 9.4
2019-Dec-14 08:51 351 9.4
2019-Dec-14 08:46 351 8.9
2019-Dec-14 08:41 351 8.9
2019-Dec-14 08:36 351 8.9
2019-Dec-14 08:31 350 9.4
2019-Dec-14 08:26 351 9.4
2019-Dec-14 08:21 351 9.4
2019-Dec-14 08:16 350 9.4
2019-Dec-14 08:11 351 9.4
2019-Dec-14 08:06 351 9.4
2019-Dec-14 08:01 335 9.4
2019-Dec-14 07:56 319 10.0
2019-Dec-14 07:51 322 10.0
2019-Dec-14 07:46 331 10.0
2019-Dec-14 07:41 305 10.0
2019-Dec-14 07:36 333 10.0
2019-Dec-14 07:31 330 10.0
2019-Dec-14 07:26 330 10.0
2019-Dec-14 07:21 330 10.0
2019-Dec-14 07:16 359 10.0
2019-Dec-14 07:11 353 10.0
2019-Dec-14 07:06 344 10.0
2019-Dec-14 07:01 344 10.0
2019-Dec-14 06:56 318 10.0
2019-Dec-14 06:51 335 10.0
2019-Dec-14 06:46 292 10.0
2019-Dec-14 06:41 291 10.0
2019-Dec-14 06:36 006 10.0
2019-Dec-14 06:31 349 10.0
2019-Dec-14 06:26 113 10.0
2019-Dec-14 06:21 119 10.0
2019-Dec-14 06:16 119 10.0
2019-Dec-14 06:11 343 10.0
2019-Dec-14 06:06 342 10.0
2019-Dec-14 06:01 351 10.0
2019-Dec-14 05:56 304 10.0
2019-Dec-14 05:51 304 10.0
2019-Dec-14 05:46 325 10.0
2019-Dec-14 05:41 349 0 gusting 5 10.0
2019-Dec-14 05:36 010 0 gusting 5 10.0
2019-Dec-14 05:31 307 0 gusting 2 10.0
2019-Dec-14 05:26 020 0 gusting 5 10.0
2019-Dec-14 05:21 338 1 gusting 5 10.0
2019-Dec-14 05:16 297 0 gusting 5 10.0
2019-Dec-14 05:11 309 0 gusting 3 10.6
2019-Dec-14 05:06 013 0 gusting 3 10.6
2019-Dec-14 05:01 309 0 gusting 3 10.6
2019-Dec-14 04:56 328 10.6
2019-Dec-14 04:51 333 10.6
2019-Dec-14 04:46 338 10.6
2019-Dec-14 04:41 330 10.6
2019-Dec-14 04:36 296 10.6
2019-Dec-14 04:31 339 10.6
2019-Dec-14 04:26 338 10.6
2019-Dec-14 04:21 338 10.6
2019-Dec-14 04:16 285 10.6
2019-Dec-14 04:11 351 10.6
2019-Dec-14 04:06 321 10.6
2019-Dec-14 04:01 309 10.6
2019-Dec-14 03:56 309 10.6
2019-Dec-14 03:51 309 10.6
2019-Dec-14 03:46 309 10.6
2019-Dec-14 03:41 309 10.6
2019-Dec-14 03:36 309 10.6
2019-Dec-14 03:31 309 10.6
2019-Dec-14 03:26 309 10.6
2019-Dec-14 03:21 309 10.6
2019-Dec-14 03:16 309 10.6
2019-Dec-14 03:11 309 10.6
2019-Dec-14 03:06 309 10.6
2019-Dec-14 03:01 309 10.6
2019-Dec-14 02:56 309 10.6
2019-Dec-14 02:51 303 10.6
2019-Dec-14 02:46 284 10.6
2019-Dec-14 02:41 351 10.6
2019-Dec-14 02:36 351 10.6
2019-Dec-14 02:31 351 10.6
2019-Dec-14 02:26 351 10.6
2019-Dec-14 02:21 314 10.6
2019-Dec-14 02:16 10.6
2019-Dec-14 02:11 004 11.1
2019-Dec-14 02:06 285 11.1
2019-Dec-14 02:01 344 11.1
2019-Dec-14 01:56 346 11.1
2019-Dec-14 01:51 356 11.1
2019-Dec-14 01:46 016 11.1
2019-Dec-14 01:40 299 11.1
2019-Dec-14 01:36 020 11.1
2019-Dec-14 01:30 326 11.1
2019-Dec-14 01:28 340 11.1
2019-Dec-14 01:20 340 11.1
2019-Dec-14 01:15 340 11.1
2019-Dec-14 01:10 328 11.1
2019-Dec-14 01:05 328 11.1
2019-Dec-14 01:00 328 11.1
2019-Dec-14 00:55 328 11.1
2019-Dec-14 00:50 328 11.1
2019-Dec-14 00:45 328 11.1
2019-Dec-14 00:40 328 11.1
2019-Dec-14 00:35 328 11.1
2019-Dec-14 00:30 328 11.7
2019-Dec-14 00:25 328 11.1
2019-Dec-14 00:20 336 11.7
2019-Dec-14 00:15 336 11.7
2019-Dec-14 00:10 336 11.7
2019-Dec-14 00:05 336 11.1
2019-Dec-14 00:00 336 11.1
2019-Dec-13 23:55 292 11.1
2019-Dec-13 23:50 292 11.7
2019-Dec-13 23:45 293 11.7
2019-Dec-13 23:40 288 11.7
2019-Dec-13 23:35 289 11.7
2019-Dec-13 23:30 333 11.7
2019-Dec-13 23:25 333 11.7
2019-Dec-13 23:20 333 11.7
2019-Dec-13 23:15 306 11.7
2019-Dec-13 23:10 335 11.7
2019-Dec-13 23:05 330 11.7
2019-Dec-13 23:00 288 11.7
2019-Dec-13 22:55 305 11.7
2019-Dec-13 22:50 298 11.7
2019-Dec-13 22:45 359 11.7
2019-Dec-13 22:40 307 11.7
2019-Dec-13 22:35 328 11.7
2019-Dec-13 22:30 356 11.7
2019-Dec-13 22:25 086 11.7
2019-Dec-13 22:20 301 11.7
2019-Dec-13 22:15 329 11.7
2019-Dec-13 22:10 330 11.7
2019-Dec-13 22:05 330 11.7
2019-Dec-13 22:00 312 11.7
2019-Dec-13 21:55 330 11.7
2019-Dec-13 21:50 340 11.7
2019-Dec-13 21:45 340 11.7
2019-Dec-13 21:40 340 11.7
2019-Dec-13 21:35 305 11.7
2019-Dec-13 21:30 306 11.7
2019-Dec-13 21:25 350 11.7
2019-Dec-13 21:20 300 11.7
2019-Dec-13 21:15 310 0 gusting 5 11.7
2019-Dec-13 21:10 006 0 gusting 5 11.7
2019-Dec-13 21:05 002 0 gusting 2 11.7
2019-Dec-13 21:00 297 0 gusting 2 11.7
2019-Dec-13 20:55 350 11.7
2019-Dec-13 20:50 308 0 gusting 2 11.7
2019-Dec-13 20:45 340 0 gusting 3 11.7
2019-Dec-13 20:40 352 0 gusting 3 11.7
2019-Dec-13 20:35 344 0 gusting 2 11.7
2019-Dec-13 20:30 332 0 gusting 4 11.7
2019-Dec-13 20:25 355 0 gusting 4 11.7
2019-Dec-13 20:20 035 12.2
2019-Dec-13 20:15 346 12.2
2019-Dec-13 20:10 340 12.2
2019-Dec-13 20:05 343 12.2
2019-Dec-13 20:00 359 12.2
2019-Dec-13 19:55 349 11.7
2019-Dec-13 19:50 090 11.7
2019-Dec-13 19:45 359 0 gusting 2 11.7
2019-Dec-13 19:40 306 11.7
2019-Dec-13 19:35 294 11.7
2019-Dec-13 19:30 034 11.7
2019-Dec-13 19:25 014 12.2
2019-Dec-13 19:20 310 12.2
2019-Dec-13 19:15 003 0 gusting 2 12.2
2019-Dec-13 19:10 324 12.2
2019-Dec-13 19:05 084 12.2
2019-Dec-13 19:00 084 0 gusting 2 12.2
2019-Dec-13 18:55 340 0 gusting 2 12.2
2019-Dec-13 18:50 011 12.2
2019-Dec-13 18:45 349 12.2
2019-Dec-13 18:40 328 12.2
2019-Dec-13 18:35 328 11.7
2019-Dec-13 18:30 319 12.2
2019-Dec-13 18:25 357 0 gusting 2 11.7
2019-Dec-13 18:20 357 0 gusting 3 11.7
2019-Dec-13 18:15 294 0 gusting 3 11.7
2019-Dec-13 18:10 325 12.2
2019-Dec-13 18:05 265 11.7
2019-Dec-13 18:00 335 11.7
2019-Dec-13 17:55 291 11.7
2019-Dec-13 17:50 020 11.7
2019-Dec-13 17:45 001 11.7
2019-Dec-13 17:40 001 11.7
2019-Dec-13 17:35 316 11.7
2019-Dec-13 17:30 008 11.7
2019-Dec-13 17:25 025 11.7
2019-Dec-13 17:20 338 11.7
2019-Dec-13 17:15 356 11.7
2019-Dec-13 17:10 359 11.7
2019-Dec-13 17:05 290 11.1
2019-Dec-13 17:00 330 11.1
2019-Dec-13 16:55 342 11.1
2019-Dec-13 16:50 329 11.7
2019-Dec-13 16:45 329 11.7
2019-Dec-13 16:40 327 11.7
2019-Dec-13 16:35 323 11.7
2019-Dec-13 16:30 349 11.7
2019-Dec-13 16:25 027 11.7
2019-Dec-13 16:20 352 11.7
2019-Dec-13 16:15 023 11.1
2019-Dec-13 16:10 112 11.1
2019-Dec-13 16:05 111 11.1
2019-Dec-13 16:00 354 11.1
2019-Dec-13 15:55 102 11.1
2019-Dec-13 15:50 321 11.1
2019-Dec-13 15:45 286 11.1
2019-Dec-13 15:40 097 10.6
2019-Dec-13 15:35 014 10.6
2019-Dec-13 15:30 345 10.6
2019-Dec-13 15:25 345 10.6
2019-Dec-13 15:20 338 10.6
2019-Dec-13 15:15 244 10.6
2019-Dec-13 15:10 115 10.0
2019-Dec-13 15:05 342 10.6
2019-Dec-13 15:00 106 10.6
2019-Dec-13 14:55 106 10.0
2019-Dec-13 14:50 114 10.0
2019-Dec-13 14:45 114 10.0
2019-Dec-13 14:40 003 10.0
2019-Dec-13 14:35 007 10.0
2019-Dec-13 14:30 293 10.0
2019-Dec-13 14:25 301 10.0
2019-Dec-13 14:20 264 10.0
2019-Dec-13 14:15 323 10.0
2019-Dec-13 14:10 320 10.0
2019-Dec-13 14:05 343 10.0
2019-Dec-13 14:00 343 10.0
2019-Dec-13 13:50 343 10.0
2019-Dec-13 13:45 334 10.0
2019-Dec-13 13:40 334 10.0
2019-Dec-13 13:35 221 9.4
2019-Dec-13 13:30 221 9.4
2019-Dec-13 13:25 290 9.4
2019-Dec-13 13:20 333 9.4
2019-Dec-13 13:15 332 9.4
2019-Dec-13 13:10 332 9.4
2019-Dec-13 13:05 086 9.4
2019-Dec-13 13:00 086 9.4
2019-Dec-13 12:55 086 9.4
2019-Dec-13 12:50 032 9.4
2019-Dec-13 12:45 032 9.4
2019-Dec-13 12:40 032 9.4
2019-Dec-13 12:35 032 9.4
2019-Dec-13 12:30 297 9.4
2019-Dec-13 12:25 323 9.4
2019-Dec-13 12:20 295 9.4
2019-Dec-13 12:15 107 9.4
2019-Dec-13 12:10 107 9.4
2019-Dec-13 12:05 137 9.4
2019-Dec-13 12:00 326 9.4
2019-Dec-13 11:55 326 9.4
2019-Dec-13 11:50 326 9.4
2019-Dec-13 11:45 326 9.4
2019-Dec-13 11:40 207 9.4
2019-Dec-13 11:35 207 9.4
2019-Dec-13 11:30 125 9.4
2019-Dec-13 11:25 321 9.4
2019-Dec-13 11:20 321 9.4
2019-Dec-13 11:15 352 9.4
2019-Dec-13 11:10 352 9.4
2019-Dec-13 11:05 352 9.4
2019-Dec-13 11:00 352 9.4
2019-Dec-13 10:55 352 9.4
2019-Dec-13 10:50 352 9.4
2019-Dec-13 10:45 260 9.4
2019-Dec-13 10:40 329 9.4
2019-Dec-13 10:35 313 9.4
2019-Dec-13 10:30 293 9.4
2019-Dec-13 10:25 337 9.4
2019-Dec-13 10:20 327 9.4
2019-Dec-13 10:15 002 9.4
2019-Dec-13 10:10 002 9.4
2019-Dec-13 10:05 002 9.4
2019-Dec-13 10:00 257 9.4
2019-Dec-13 09:55 257 9.4
2019-Dec-13 09:50 252 9.4
2019-Dec-13 09:45 249 9.4
2019-Dec-13 09:40 051 9.4
2019-Dec-13 09:35 051 9.4
2019-Dec-13 09:30 150 9.4
2019-Dec-13 09:25 029 9.4
2019-Dec-13 09:20 306 9.4
2019-Dec-13 09:15 343 9.4
2019-Dec-13 09:10 032 9.4
2019-Dec-13 09:05 359 9.4
2019-Dec-13 09:00 278 9.4
2019-Dec-13 08:50 266 9.4
2019-Dec-13 08:45 256 9.4
2019-Dec-13 08:40 007 9.4
2019-Dec-13 08:35 075 9.4
2019-Dec-13 08:30 072 9.4
2019-Dec-13 08:25 072 9.4
2019-Dec-13 08:20 072 9.4
2019-Dec-13 08:15 072 9.4
2019-Dec-13 08:10 097 9.4
2019-Dec-13 08:05 098 9.4
2019-Dec-13 08:00 335 9.4
2019-Dec-13 07:55 310 9.4
2019-Dec-13 07:50 237 9.4
2019-Dec-13 07:45 022 9.4
2019-Dec-13 07:40 278 9.4
2019-Dec-13 07:35 105 9.4
2019-Dec-13 07:30 019 9.4
2019-Dec-13 07:25 019 9.4
2019-Dec-13 07:20 267 9.4
2019-Dec-13 07:05 299 9.4
2019-Dec-13 07:00 007 9.4
2019-Dec-13 06:50 349 9.4
2019-Dec-13 06:45 025 9.4
2019-Dec-13 06:40 010 9.4
2019-Dec-13 06:35 257 9.4
2019-Dec-13 06:30 314 9.4
2019-Dec-13 06:25 153 9.4
2019-Dec-13 06:20 104 9.4
2019-Dec-13 06:15 044 9.4
2019-Dec-13 06:10 087 9.4
2019-Dec-13 06:05 234 9.4
2019-Dec-13 06:00 094 9.4
2019-Dec-13 05:54 096 9.4
2019-Dec-13 05:49 067 9.4
2019-Dec-13 05:44 346 9.4
2019-Dec-13 05:39 080 9.4
2019-Dec-13 05:34 081 9.4
2019-Dec-13 05:29 106 9.4
2019-Dec-13 05:25 096 9.4
2019-Dec-13 05:19 081 9.4
2019-Dec-13 05:09 355 9.4
2019-Dec-13 05:04 259 9.4
2019-Dec-13 04:59 248 9.4
2019-Dec-13 04:54 041 9.4
2019-Dec-13 04:49 075 9.4
2019-Dec-13 04:44 282 9.4
2019-Dec-13 04:39 022 9.4
2019-Dec-13 04:34 107 9.4
2019-Dec-13 04:29 101 9.4
2019-Dec-13 04:24 039 9.4
2019-Dec-13 04:19 124 9.4
2019-Dec-13 04:14 150 9.4
2019-Dec-13 04:09 116 9.4
2019-Dec-13 04:04 324 9.4